[[{"header":{"parameterUnit":"m.s-1","parameterCategory":1,"la1":30.2991,"la2":30.254,"lo1":-89.0895,"lo2":-89.0444,"dy":0.0017,"dx":0.0017,"nx":28,"ny":28,"refTime":"2024-05-22T21:00:00:Z","depth":0,"parameterNumber":2,"parameterNumberName":"U-component_of_WINDS"},"data":[0,0,0,0,0,0,0,0,0,0,0,0,0,0,0,0,0,0,0,0,0,0,0,0,0,0,0,0,0,0,0,0,0,0,0,0,0,0,0,0,0,0,0,0,0,0,0,0,0,0,0,0,0,0,0,0,0,0,-1.7924,-1.7924,0,-1.7872,-1.7871,-1.787,-1.7812,-1.7811,-1.781,-1.7809,-1.7754,-1.7754,-1.7753,0,0,0,0,0,0,0,0,0,0,0,0,0,-1.7974,-1.7974,-1.7924,-1.7924,-1.7923,-1.7872,-1.7871,-1.787,-1.7812,-1.7811,-1.781,-1.7809,-1.7755,-1.7754,-1.7753,0,0,0,0,0,0,0,0,0,0,0,0,0,-1.794,-1.7973,-1.7925,-1.7888,-1.7884,-1.7872,-1.7871,-1.787,-1.7812,-1.7811,-1.781,-1.7809,-1.7755,-1.7754,-1.7753,-1.7772,0,0,-1.775,-1.7749,0,0,0,0,0,0,0,0,-1.7942,-1.7938,-1.7894,-1.789,-1.7886,-1.7847,-1.7868,-1.7837,-1.7813,-1.784,-1.7809,-1.7808,-1.7786,-1.7783,-1.7775,-1.777,-1.7767,-1.775,-1.7749,-1.7749,-1.7748,0,0,0,0,0,0,0,-1.7945,-1.794,-1.7903,-1.7893,-1.7889,-1.7874,-1.7868,-1.7862,-1.7821,-1.7837,-1.7833,-1.7827,-1.7784,-1.7777,-1.7774,-1.7766,-1.775,-1.7749,-1.7748,-1.7748,-1.7774,-1.7775,0,0,0,0,0,0,-1.7953,-1.7943,-1.7905,-1.7902,-1.7912,-1.7874,-1.7867,-1.7861,-1.7821,-1.7813,-1.7829,-1.7825,-1.7779,-1.7775,-1.7772,-1.7792,-1.7749,-1.7748,-1.7747,-1.7773,-1.7774,-1.7776,0,0,0,0,0,0,-1.7954,-1.795,-1.7907,-1.7921,-1.7915,-1.7875,-1.7868,-1.7861,-1.7853,-1.7814,-1.7806,-1.7829,-1.7778,-1.7773,-1.7773,-1.7789,-1.7747,-1.7746,-1.7771,-1.7773,-1.7775,-1.7832,0,0,0,0,0,0,-1.7956,-1.7951,-1.7958,-1.7922,-1.7914,-1.791,-1.7869,-1.786,-1.7852,-1.7846,-1.7812,-1.7805,-1.7776,-1.7774,-1.7772,-1.7787,-1.7746,-1.777,-1.7772,-1.7774,-1.7829,-1.7836,-1.7842,0,0,0,0,0,-1.7958,-1.7976,-1.7958,-1.7954,-1.7922,-1.7911,-1.7906,-1.7873,-1.7853,-1.786,-1.7835,-1.7806,-1.7788,-1.7775,-1.7771,-1.7786,-1.7768,-1.7771,-1.7774,-1.7826,-1.7834,-1.7842,0,0,0,0,0,0,-1.8014,-1.797,-1.7951,-1.7958,-1.7938,-1.7901,-1.7908,-1.7883,-1.7869,-1.7865,-1.7823,-1.7816,-1.7821,-1.7803,-1.779,-1.7803,-1.7774,-1.7776,-1.7814,-1.7822,-1.7829,-1.7833,-1.7745,0,0,0,0,0,-1.8028,-1.8022,-1.7984,-1.7994,-1.7985,-1.7949,-1.7942,-1.7918,-1.7897,-1.7888,-1.7863,-1.7843,-1.7832,-1.7826,-1.7814,-1.7826,-1.7818,-1.7834,-1.7841,-1.7847,-1.7849,-1.7854,-1.7861,-1.7785,-1.7785,-1.7785,0,0,-1.8055,-1.803,-1.8029,-1.8005,-1.7987,-1.7982,-1.7942,-1.7939,-1.7935,-1.7887,-1.7886,-1.7867,-1.7841,-1.7847,-1.7849,-1.7833,-1.7868,-1.785,-1.7855,-1.7855,-1.7858,-1.7865,-1.7872,-1.7787,-1.7787,-1.7787,0,0,-1.8103,-1.8083,-1.809,-1.8073,-1.8047,-1.8022,-1.8024,-1.799,-1.7976,-1.7974,-1.7938,-1.7933,-1.7916,-1.7899,-1.7889,-1.7931,-1.7904,-1.7928,-1.7963,-1.7968,-1.7974,-1.7979,-1.7994,-1.8,-1.793,-1.7931,-1.7931,0,-1.814,-1.8132,-1.8096,-1.8095,-1.8085,-1.8043,-1.8049,-1.8034,-1.8005,-1.8,-1.7982,-1.796,-1.794,-1.7942,-1.7952,-1.7945,-1.7945,-1.7932,-1.7976,-1.7981,-1.7985,-1.7999,-1.8005,-1.7934,-1.7933,-1.7933,-1.7933,0,-1.8179,-1.8174,-1.8182,-1.8156,-1.8147,-1.815,-1.8114,-1.811,-1.8086,-1.8064,-1.8062,-1.8037,-1.8019,-1.8018,-1.7995,-1.8016,-1.8007,-1.7984,-1.7954,-1.7996,-1.8009,-1.8014,-1.7938,-1.7937,-1.7936,-1.7935,0,0,-1.8261,-1.8216,-1.8219,-1.8207,-1.8175,-1.817,-1.8171,-1.8154,-1.8151,-1.8133,-1.8132,-1.8119,-1.8097,-1.8085,-1.806,-1.8065,-1.81,-1.804,-1.8039,-1.8053,-1.8122,-1.814,-1.8147,-1.8082,-1.8083,-1.8084,-1.8124,0,-1.8304,-1.8303,-1.8271,-1.8278,-1.8273,-1.8233,-1.8233,-1.8214,-1.8193,-1.8185,-1.8161,-1.8153,-1.8125,-1.8117,-1.812,-1.8095,-1.8113,-1.8092,-1.8081,-1.8081,-1.8089,-1.8153,-1.8172,-1.8212,-1.8129,-1.813,-1.813,0,-1.8353,-1.8338,-1.8346,-1.8314,-1.831,-1.8312,-1.8294,-1.8287,-1.8264,-1.8248,-1.8235,-1.8207,-1.8205,-1.8177,-1.8174,-1.816,-1.8153,-1.8141,-1.8141,-1.8139,-1.8109,-1.8153,-1.8224,-1.823,-1.8138,-1.8137,-1.8136,0,-1.8413,-1.8394,-1.8397,-1.8387,-1.835,-1.8352,-1.8337,-1.8312,-1.8304,-1.8289,-1.8283,-1.8267,-1.8259,-1.8247,-1.8215,-1.8197,-1.8216,-1.8185,-1.8203,-1.8204,-1.8208,-1.8209,-1.8279,-1.8204,-1.8204,-1.8204,-1.8204,0,-1.8464,-1.847,-1.8423,-1.8424,-1.843,-1.8393,-1.84,-1.8381,-1.8359,-1.8356,-1.832,-1.8318,-1.8275,-1.8268,-1.8243,-1.8245,-1.8241,-1.8228,-1.8221,-1.8232,-1.8233,-1.8227,-1.8224,-1.8205,-1.8205,-1.8205,-1.8205,0,-1.8531,-1.85,-1.85,-1.8465,-1.8456,-1.8462,-1.8432,-1.8432,-1.8409,-1.8405,-1.8402,-1.8365,-1.8355,-1.8322,-1.8303,-1.8287,-1.8296,-1.8283,-1.8304,-1.83,-1.832,-1.8318,-1.8389,-1.8396,-1.8317,-1.8317,-1.8318,0,-1.8566,-1.857,-1.8536,-1.8531,-1.8518,-1.8511,-1.8502,-1.8466,-1.8459,-1.8433,-1.8436,-1.8423,-1.8411,-1.8396,-1.8368,-1.8353,-1.834,-1.8366,-1.8337,-1.8348,-1.8341,-1.8341,-1.8341,-1.8372,-1.8373,-1.8374,-1.8375,0,-1.8632,-1.8616,-1.8606,-1.859,-1.8582,-1.8568,-1.8552,-1.855,-1.8509,-1.8503,-1.8492,-1.8483,-1.8464,-1.8452,-1.8433,-1.8416,-1.8389,-1.8384,-1.8387,-1.8398,-1.841,-1.8404,-1.8321,-1.8382,-1.8381,-1.8381,-1.838,-1.838,-1.8684,-1.8686,-1.8662,-1.8652,-1.8636,-1.8622,-1.862,-1.8597,-1.8587,-1.857,-1.8548,-1.854,-1.8517,-1.8489,-1.8474,-1.8467,-1.8452,-1.8457,-1.8459,-1.8461,-1.8466,-1.8411,-1.8464,-1.8463,-1.8463,-1.8463,-1.8463,0,-1.8748,-1.8731,-1.8722,-1.87,-1.8693,-1.8668,-1.8648,-1.8643,-1.8637,-1.8618,-1.8606,-1.8594,-1.8582,-1.8553,-1.8538,-1.8538,-1.8525,-1.8535,-1.8535,-1.8531,-1.848,-1.8478,-1.8546,-1.8546,-1.8546,-1.8546,-1.8546,-1.8546,-1.878,-1.8782,-1.8764,-1.8757,-1.874,-1.8732,-1.8723,-1.871,-1.8694,-1.8683,-1.8672,-1.8653,-1.863,-1.8613,-1.86,-1.8592,-1.8588,-1.8603,-1.8591,-1.8543,-1.8535,-1.8527,-1.8526,-1.8602,-1.8602,-1.8643,-1.8643,-1.8643]},{"header":{"parameterUnit":"m.s-1","parameterCategory":1,"la1":30.2991,"la2":30.254,"lo1":-89.0895,"lo2":-89.0444,"dy":0.0017,"dx":0.0017,"nx":28,"ny":28,"refTime":"2024-05-22T21:00:00:Z","depth":0,"parameterNumber":3,"parameterNumberName":"V-component_of_WINDS"},"data":[0,0,0,0,0,0,0,0,0,0,0,0,0,0,0,0,0,0,0,0,0,0,0,0,0,0,0,0,0,0,0,0,0,0,0,0,0,0,0,0,0,0,0,0,0,0,0,0,0,0,0,0,0,0,0,0,0,0,3.8949,3.895,0,3.8992,3.8993,3.8993,3.8936,3.8934,3.8932,3.893,3.8971,3.8974,3.8977,0,0,0,0,0,0,0,0,0,0,0,0,0,3.8814,3.8816,3.8949,3.895,3.895,3.8992,3.8993,3.8993,3.8936,3.8934,3.8931,3.8929,3.897,3.8974,3.8977,0,0,0,0,0,0,0,0,0,0,0,0,0,3.8866,3.8817,3.8949,3.8927,3.8925,3.8992,3.8993,3.8993,3.8937,3.8934,3.8931,3.8928,3.8969,3.8974,3.8978,3.9068,0,0,3.8992,3.8994,0,0,0,0,0,0,0,0,3.8863,3.8871,3.893,3.8928,3.8927,3.8956,3.896,3.9018,3.8938,3.8932,3.893,3.8926,3.8968,3.8973,3.8987,3.9069,3.9071,3.8992,3.8995,3.8997,3.8998,0,0,0,0,0,0,0,3.886,3.8869,3.8966,3.893,3.8929,3.8913,3.8917,3.8971,3.8967,3.8933,3.8929,3.8935,3.8967,3.8983,3.8988,3.9072,3.8992,3.8996,3.8999,3.9001,3.9227,3.923,0,0,0,0,0,0,3.8859,3.8866,3.8965,3.8967,3.8887,3.8918,3.8923,3.8949,3.8966,3.8966,3.8937,3.8932,3.8977,3.8983,3.8989,3.9093,3.8997,3.9001,3.9004,3.9223,3.9227,3.9231,0,0,0,0,0,0,3.8856,3.8868,3.8963,3.8916,3.8927,3.8924,3.8954,3.8952,3.8968,3.897,3.8968,3.8955,3.8975,3.8983,3.9048,3.9094,3.9003,3.9007,3.9219,3.9225,3.9229,3.9303,0,0,0,0,0,0,3.8853,3.8868,3.8903,3.8917,3.8929,3.9022,3.8957,3.8955,3.8976,3.897,3.8986,3.8986,3.8973,3.9042,3.9053,3.9098,3.9011,3.9215,3.9222,3.9227,3.9296,3.931,3.9321,0,0,0,0,0,3.8848,3.8922,3.8905,3.8917,3.8973,3.9025,3.9032,3.9017,3.898,3.9014,3.9015,3.8985,3.9088,3.9049,3.9061,3.9108,3.9212,3.922,3.9227,3.9291,3.9307,3.9321,0,0,0,0,0,0,3.8913,3.8923,3.8905,3.8986,3.9005,3.9015,3.9058,3.9035,3.9065,3.9057,3.9036,3.904,3.9109,3.9116,3.9072,3.9195,3.9144,3.9154,3.9188,3.9203,3.9216,3.9212,3.9015,0,0,0,0,0,3.8937,3.8979,3.8985,3.9056,3.9067,3.9061,3.9083,3.907,3.9089,3.9096,3.9102,3.912,3.9156,3.9181,3.9214,3.9297,3.9299,3.9336,3.9348,3.9359,3.9367,3.9409,3.9425,3.9255,3.9255,3.9255,0,0,3.8986,3.8997,3.9025,3.9069,3.9083,3.9125,3.9068,3.9116,3.9147,3.9103,3.9164,3.917,3.9189,3.9263,3.9296,3.927,3.9414,3.9368,3.9376,3.9379,3.9418,3.9434,3.9449,3.926,3.9259,3.9258,0,0,3.9097,3.9111,3.917,3.9184,3.9205,3.9201,3.9215,3.9229,3.923,3.9292,3.9259,3.9295,3.9359,3.9373,3.9388,3.9504,3.9476,3.9515,3.9579,3.9621,3.9634,3.9646,3.9684,3.9699,3.9524,3.9524,3.9524,0,3.9155,3.9219,3.9203,3.9253,3.9272,3.9235,3.9293,3.9308,3.9339,3.9352,3.9324,3.9401,3.9411,3.9487,3.9515,3.953,3.9544,3.9512,3.9634,3.9645,3.9656,3.9692,3.9707,3.9528,3.9528,3.9527,3.9527,0,3.9288,3.9333,3.9378,3.9409,3.9433,3.9488,3.9478,3.9505,3.9489,3.9487,3.9549,3.956,3.9594,3.9612,3.9597,3.9685,3.9668,3.9637,3.9585,3.9677,3.9711,3.9725,3.9535,3.9533,3.9532,3.9531,0,0,3.9441,3.9461,3.9478,3.949,3.951,3.9544,3.9595,3.9629,3.9651,3.9674,3.9715,3.9769,3.974,3.9758,3.9744,3.9781,3.9868,3.9745,3.9745,3.9765,3.9963,3.9984,4.0001,3.9851,3.9853,3.9855,3.996,0,3.955,3.964,3.9626,3.9712,3.9751,3.9716,3.9761,3.9777,3.9777,3.9809,3.9808,3.9846,3.9806,3.9816,3.9851,3.985,3.9907,3.9843,3.9887,3.9888,3.9881,4.0019,4.0043,4.0141,3.9974,3.9976,3.9978,0,3.9689,3.9716,3.9807,3.9818,3.9835,3.9875,3.9904,3.9936,3.9953,3.995,3.9969,3.9949,3.9998,3.9947,4.0014,3.997,3.9987,3.999,3.9993,3.9995,3.9937,4.0023,4.0173,4.0187,3.9999,3.9997,3.9996,0,3.9788,3.9848,3.9909,3.9921,3.9937,3.9966,3.9974,3.9988,4.0008,4.0033,4.0046,4.0077,4.0093,4.0116,4.0103,4.0068,4.0172,4.012,4.0169,4.0169,4.0191,4.0189,4.0343,4.0206,4.0205,4.0205,4.0205,0,3.991,3.9966,3.9953,3.9991,4.0051,4.0034,4.0095,4.0098,4.0111,4.0147,4.0119,4.0153,4.0135,4.0168,4.0158,4.0214,4.0222,4.0219,4.0216,4.0221,4.0221,4.023,4.0222,4.0209,4.0208,4.0207,4.0207,0,4.0031,4.0025,4.0088,4.0098,4.0102,4.0146,4.0154,4.0188,4.0185,4.0231,4.0241,4.0236,4.0273,4.0263,4.0303,4.0296,4.0366,4.0354,4.036,4.0356,4.0405,4.04,4.0569,4.0589,4.0441,4.0442,4.0443,0,4.0109,4.0151,4.0165,4.0187,4.0197,4.0234,4.0254,4.0239,4.0262,4.0283,4.0314,4.0349,4.0375,4.0435,4.0434,4.0464,4.0452,4.0509,4.0456,4.0459,4.045,4.0447,4.045,4.0519,4.0521,4.0522,4.0523,0,4.0246,4.024,4.0271,4.0302,4.0327,4.035,4.037,4.0389,4.0375,4.0402,4.0439,4.0459,4.05,4.0533,4.056,4.0567,4.0542,4.054,4.0553,4.0557,4.0558,4.0556,4.0386,4.0536,4.0535,4.0534,4.0533,4.0533,4.0345,4.038,4.0395,4.043,4.0444,4.0463,4.0495,4.0496,4.0527,4.0559,4.0548,4.059,4.0604,4.0637,4.0648,4.0679,4.0657,4.0676,4.068,4.0685,4.069,4.0555,4.0684,4.0684,4.0684,4.0683,4.0683,0,4.0479,4.0487,4.052,4.0548,4.0575,4.0551,4.0571,4.0595,4.0633,4.0648,4.0675,4.0717,4.0749,4.0751,4.078,4.0805,4.0794,4.0813,4.081,4.0812,4.0709,4.0694,4.0821,4.0821,4.0821,4.0821,4.0821,4.0821,4.0552,4.0609,4.0605,4.0667,4.0674,4.0716,4.0729,4.0746,4.0758,4.0806,4.0832,4.0834,4.0843,4.0873,4.0901,4.09,4.0911,4.0934,4.0929,4.0833,4.0819,4.0806,4.0792,4.0937,4.0938,4.1029,4.103,4.1031]}]]